Flag for Germany Weather past 2 weeks in Offenburg, Baden-Württemberg, Germany

Now
41 °F

Overcast.


Feels Like: 36 °F
Forecast: 36 / 48 °F
Wind: 8 mph from Southwest

Location: Lahr

Current Time: Mar 1, 2015 at 8:57:52 AM

Latest Report: Mar 1, 2015 at 8:00 AM


Visibility: 28 mi

Pressure: 29.86 "Hg

Humidity: 74%

Dew point: 34 °F

Location of OffenburgLocation

Historic Weather in Offenburg — Graph

°F

Offenburg temperature yesterday

Maximum temperature yesterday: 48 °F (at 4:00 PM)
Minimum temperature yesterday: 33 °F (at 8:00 AM)
Average temperature yesterday: 40 °F

Past Weeks' High & Low Weather Summary

 TemperatureHumidityPressure
High57 °F (Feb 20, 4:00 PM)100% (Feb 15, 12:00 AM)30.74 "Hg (Feb 15, 12:00 AM)
Low25 °F (Feb 20, 4:00 AM)26% (Feb 20, 9:00 PM)29.55 "Hg (Feb 23, 5:00 PM)
Average38 °F82%30.06 "Hg
* Reported Feb 14 8:00 AM — Mar 1 8:00 AM, Offenburg, Weather by CustomWeather, © 2015

Note: Actual official high and low records may vary slightly from our data, if they occured in-between our weather recording intervals... More about our weather records

Advertising

Offenburg weather history for previous 24 hours

 ConditionsComfort  
Time TempWeatherWind HumidityBarometerVisibility
8:00 AM
Sun, Mar 1
41 °FOvercast.8 mph74%29.86 "Hg28 mi
7:00 AM40 °FPassing clouds.9 mph76%29.86 "Hg2 mi
6:00 AM40 °FLight rain. Overcast.9 mph76%29.88 "Hg9 mi
5:00 AM43 °FLight rain. Overcast.8 mph59%29.88 "Hg12 mi
4:00 AM43 °FOvercast.6 mph61%29.90 "Hg37 mi
3:00 AM42 °FOvercast.6 mph65%29.93 "Hg25 mi
2:00 AM41 °FOvercast.5 mph66%29.96 "Hg28 mi
1:00 AM37 °FOvercast.2 mph75%29.98 "Hg17 mi
12:00 AM36 °FOvercast.2 mph84%30.01 "Hg11 mi
11:00 PM
Sat, Feb 28
35 °FClear.1 mph85%30.04 "Hg10 mi
10:00 PM37 °FClear.2 mph81%30.05 "Hg8 mi
9:00 PM39 °FClear.2 mph77%30.09 "Hg25 mi
8:00 PM40 °FClear.2 mph77%30.09 "Hg25 mi
7:00 PM42 °FPassing clouds.2 mph71%30.09 "Hg22 mi
6:00 PM45 °FPassing clouds.3 mph56%30.09 "Hg25 mi
5:00 PMN/APassing clouds.14 mphN/AN/A5 mi
4:00 PM48 °FScattered clouds.2 mph50%30.11 "Hg22 mi
3:00 PM47 °FOvercast.3 mph52%30.12 "Hg22 mi
2:00 PM47 °FPartly sunny.2 mph52%30.14 "Hg19 mi
1:00 PM44 °FScattered clouds.2 mph62%30.17 "Hg19 mi
12:00 PM45 °FScattered clouds.2 mph63%30.19 "Hg16 mi
11:00 AM43 °FPassing clouds.2 mph72%30.21 "Hg11 mi
10:00 AM40 °FPassing clouds.1 mph78%30.22 "Hg13 mi
9:00 AM36 °FPassing clouds.1 mph86%30.23 "Hg16 mi
8:00 AM33 °FFog.1 mph97%30.23 "Hg14 mi
Weather by CustomWeather, © 2015

See weather overviewHow to use our weather pages